Retour au catalogue

YAOGAN-39 05C

ActifMilitaireVLEO
NORAD 58559·PAYLOAD·🇨🇳 China

Lancé Dec 10, 2023 depuis Xichang Satellite Launch Center

Loading…

Prochains Passages (prochaines 24 heures)

TLE

FraisSource: Space-Track

Époque: Sep 14, 2026, 09:57 UTC

1 58559U 23194C   26257.41509484  .00004252  00000-0  21372-3 0  9999
2 58559  34.9903 245.0723 0015387 101.2151 259.0292 15.16602029153684

Suivez YAOGAN-39 05C en temps réel avec AllMySat

Download on the App Store